Pensacola, FL (32501)

8:11 PM CDT on October 31, 2014 (GMT -0500)
east hills | Change Station
CLOSE
Current Station
Personal Weather Station
Location: Pensacola, FL
Elevation: 60 ft
Nearby Weather Stations
Active Advisory: Wind Advisory

Elev 60 ft 30.43 °N, 87.20 °W | Updated 1 second ago

Partly Cloudy
Partly Cloudy
65.1 °F
Feels Like 65.1 °F
N
2.3
Wind Variable Wind from North
Gusts 4.7 mph

Today
High -- | Low -- °F
--% Chance of Precip.
Yesterday
High -- | Low -- °F
Precip. -- in
7:02 AM 6:01 PM
First Quarter, 61% visible
Pressure 30.00 in
Visibility 10.0 miles
Clouds Few 7500 ft
Dew Point 48 °F
Humidity 55%
Rainfall 0.00 in
Snow Depth Not available.
UV 0 out of 12
Pollen 3.00 out of 12
Air Quality Not available.
Flu Activity Not available.
METAR KPNS 010053Z 33012KT 10SM FEW075 18/08 A2999 RMK AO2 SLP158 T01830078

More Conditions Fewer Conditions

Pressure 30.00 in
Visibility 10.0 miles
Clouds Few 7500 ft
Dew Point 48 °F
Humidity 55%
Rainfall 0.00 in
Snow Depth Not available.
UV 0 out of 12
Pollen 3.00 out of 12
Air Quality Not available.
Flu Activity Not available.
METAR KPNS 010053Z 33012KT 10SM FEW075 18/08 A2999 RMK AO2 SLP158 T01830078

More Conditions Fewer Conditions

10-Day Weather Forecast

Almanac

Astronomy

Oct. 31, 2014 Rise Set
Actual Time
Civil Twilight
Nautical Twilight
Astronomical Twilight
Moon
Length of Visible Light
Length of Day
Tomorrow will be .
, % of the Moon is Illuminated

Today's Extremes

State Highs State Lows

Community

WunderPhotos

Upload Photos

1,766,798 photos uploaded!

WunderBlogs® & News

Nearby

Air Quality

  Air Quality AQ Index Pollutant
Not available.

Snow Depth

Station Depth Elevation

Earthquake Activity

City Distance Mag. Time & Date
Minimum magnitude displayed is 2.5.

Coastal Water Temperatures

Place Temperature

Nearby Weather Stations